Regional Weather Roundup
Issued by NWS

Home | Current Version | Previous Version | Text Only | Print | Product List | Glossary On
Versions: 1 2 3 4 5 6 7 8 9 10 11 12 13 14 15 16 17 18 19 20 21 22 23 24 25 26 27 28 29 30 31 32 33 34 35 36 37 38 39 40 41 42 43 44 45 46 47 48 49 50
000
ASUS43 KIND 182109
RWRIN

WEATHER ROUNDUP FOR INDIANA
NATIONAL WEATHER SERVICE INDIANAPOLIS IN
400 PM EST THU DEC 18 2014

NOTE: "FAIR" INDICATES FEW OR NO CLOUDS BELOW 12,000 FEET WITH NO
SIGNIFICANT WEATHER AND/OR OBSTRUCTIONS TO VISIBILITY.

* - STATION DOES NOT REPORT WEATHER SUCH AS PRECIPITATION OR FOG.

+ - STATION NOT QUALITY CONTROLLED BY THE NATIONAL WEATHER SERVICE.
    USE DATA WITH CAUTION...ESPECIALLY DEWPOINT AND RELATIVE
    HUMIDITY OBSERVATIONS.

INZ001>003-010>013-019-020-182200-
NORTHWEST INDIANA

CITY           SKY/WX    TMP DP  RH WIND       PRES   REMARKS
GARY /AIRPORT/ CLOUDY    28  16  59 VRB6      30.24  WCI  22
KNOX *+        CLOUDY    28  17  62 W3        30.22S
LA PORTE +     CLOUDY    29  22  73 CALM      30.22S
MICHIGAN CITY+ CLOUDY    28  16  59 W3        30.23S
MONTICELLO +   CLOUDY    26  20  75 CALM      30.22F
RENSSELAER +   PTSUNNY   28  23  80 W5        30.23S WCI  23
VALPARAISO     CLOUDY    26  17  68 CALM      30.22S

$$

LMZ046-743>745-182200-
SOUTHERN LAKE MICHIGAN

STATION/POSITION TIME  TEMP WIND        PRES
                       AIR  DIR/SP/G
                 (UTC) (F)  (DEG/KT/KT) (MB)

$$

INZ004-005-014>016-021>024-182200-
NORTH CENTRAL INDIANA

CITY           SKY/WX    TMP DP  RH WIND       PRES   REMARKS
GOSHEN         CLOUDY    27  22  81 W8        30.21R WCI  19
LOGANSPORT +   CLOUDY    28  21  74 NW3       30.23F
PERU/GRISSOM   FLURRIES  26  25  96 NW7       30.21F WCI  19
ROCHESTER +    CLOUDY    30  23  74 W6        30.22S WCI  24
SOUTH BEND     CLOUDY    28  21  75 W7        30.22S WCI  21
WARSAW +       CLOUDY    28  23  80 W7        30.21S WCI  21

$$

INZ006>009-017-018-025>027-182200-
NORTHEAST INDIANA

CITY           SKY/WX    TMP DP  RH WIND       PRES   REMARKS
ANGOLA *+      CLOUDY    27  25  93 W8        30.18S WCI  18
AUBURN +       CLOUDY    30  23  74 W5        30.20S WCI  25
FORT WAYNE     CLOUDY    28  22  78 W9        30.22R WCI  19
HUNTINGTON +   FLURRIES  26  23  89 W5        30.21S WCI  20

$$

INZ028-029-035-036-043>045-051>053-182200-
WEST CENTRAL INDIANA

CITY           SKY/WX    TMP DP  RH WIND       PRES   REMARKS
GREENCASTLE +  CLOUDY    28  19  69 CALM      30.22S
LAFAYETTE      CLOUDY    26  20  77 W5        30.24R WCI  20
TERRE HAUTE    CLOUDY    30  21  69 CALM      30.24R

$$

INZ030>032-037>040-046>048-054>057-064-065-182200-
CENTRAL INDIANA

CITY           SKY/WX    TMP DP  RH WIND       PRES   REMARKS
CP ATTERBURY + CLOUDY    30  23  74 MISG      30.24R
COLUMBUS       CLOUDY    28  23  80 CALM      30.24R
FRANKFORT +    PTSUNNY   28  22  79 CALM      30.23S
INDIANAPOLIS   CLOUDY    27  21  78 W3        30.21S
-EAGLE CREEK   CLOUDY    27  21  78 NW6       30.21S WCI  20
KOKOMO *+      CLOUDY    27  19  74 NW5       30.21F WCI  21
MARION +       CLOUDY    27  23  85 NW5       30.21F WCI  21
MT COMFORT *+  CLOUDY    27  21  80 CALM      30.22S
SHELBYVILLE    CLOUDY    29  22  75 MISG      30.22R
ZIONSVILLE +   CLOUDY    28  20  72 CALM      30.22S

$$

INZ033-034-041-042-049-050-058-059-182200-
EAST CENTRAL INDIANA

CITY           SKY/WX    TMP DP  RH WIND       PRES   REMARKS
MUNCIE         CLOUDY    27  20  75 NW5       30.20F WCI  22

$$

INZ060-061-067>069-081>083-085>088-182200-
SOUTHWEST INDIANA

CITY           SKY/WX    TMP DP  RH WIND       PRES   REMARKS
EVANSVILLE     CLOUDY    34  25  69 N5        30.24S WCI  30
HUNTINGBURG *+ PTSUNNY   32  25  74 NE5       30.24R WCI  27
WASHINGTON +   CLOUDY    30  22  70 CALM      30.24R

$$

INZ062-063-066-070>080-084-089>092-182200-
SOUTH CENTRAL AND SOUTHEAST INDIANA

CITY           SKY/WX    TMP DP  RH WIND       PRES   REMARKS
BLOOMINGTON    CLOUDY    30  22  72 CALM      30.22R

$$




USA.gov is the U.S. government's official web portal to all federal, state and local government web resources and services.